Location: Unspecified
(0.0000°N, 0.0000°E)
Time: 22:18:19
(UTC-04:00)

Hubble Space Telescope - Visible Passes

Search period start: 26 September 2021 00:00
Search period end: 06 October 2021 00:00
Orbit: 535 x 539 km, 28.5° (Epoch: 26 September)

Date Brightness Start Highest point End Pass type
(mag) Time Alt. Az. Time Alt. Az. Time Alt. Az.
26 Sep 0.8 15:21:19 10° WNW 15:25:22 73° SW 15:25:22 73° SW visible
27 Sep 1.4 15:10:23 10° WNW 15:14:23 50° SSW 15:15:33 37° SSE visible
28 Sep 2.6 01:24:13 10° SSW 01:27:48 28° SSE 01:31:22 10° E visible
28 Sep 2.1 14:59:33 10° W 15:03:21 35° SSW 15:05:46 19° SSE visible
29 Sep 2.0 01:12:53 10° SW 01:16:46 39° SSE 01:20:38 10° E visible
29 Sep 2.6 14:48:52 10° W 14:52:19 26° SSW 14:55:48 10° SSE visible
30 Sep 1.3 01:01:41 10° SW 01:05:44 56° SSE 01:09:46 10° ENE visible
30 Sep 3.1 14:38:20 10° WSW 14:41:19 19° SSW 14:44:18 10° SSE visible
01 Oct 0.8 00:51:43 18° SW 00:54:42 81° SSE 00:58:49 10° ENE visible
01 Oct 3.4 14:28:04 10° WSW 14:30:20 14° SSW 14:32:35 10° S visible
02 Oct 0.7 00:41:56 33° WSW 00:43:39 70° NNW 00:47:45 10° NE visible
02 Oct 3.7 14:18:33 10° SW 14:19:21 10° SSW 14:20:09 10° SSW visible
03 Oct 1.0 00:32:08 46° NW 00:32:36 48° NNW 00:36:35 10° NE visible
04 Oct 1.8 00:22:17 32° N 00:22:17 32° N 00:25:20 10° NE visible
05 Oct 2.8 00:12:23 18° N 00:12:23 18° N 00:13:57 10° NNE visible
